Theta_e
313 314 313 311 312 314 313 314 315 315 315 316 314 314 314 315 312 312 312 313 313 312 313 314 316 319 324 326 326 326 326 325 325 322 322 323 322 327 335 343 344 345 343 338
312 314 313 313 314 315 315 315 315 315 315 314 314 315 314 313 312 313 313 313 313 314 314 318 323 324 325 327 326 324 323 322 322 322 323 325 325 325 324 324 323 326 328 329
312 314 315 315 315 316 315 316 315 315 316 315 315 314 314 315 314 314 313 313 313 313 313 318 322 323 324 324 324 323 322 321 320 320 321 322 322 322 321 321 321 321 321 322
312 313 314 316 316 315 315 314 316 316 315 314 314 314 313 313 314 316 316 313 312 312 312 317 318 318 320 320 321 321 320 321 322 321 321 321 321 321 321 321 321 320 321 323
314 316 316 316 316 315 315 315 315 315 315 313 313 313 313 314 317 315 314 313 315 312 312 316 317 318 319 320 320 320 321 322 321 321 321 321 322 322 321 320 320 322 324 326
314 316 316 315 315 315 315 314 311 310 310 313 313 313 313 315 316 314 316 316 314 313 313 314 314 317 318 318 319 322 322 321 320 320 322 322 321 320 320 320 323 323 326 324
316 316 316 317 318 316 312 310 313 314 313 314 313 314 313 316 320 319 318 314 313 312 311 311 311 311 315 318 320 322 320 320 319 318 320 319 319 319 318 319 321 325 326 323
317 317 319 320 320 321 318 312 312 316 315 314 318 319 320 321 318 315 314 313 312 313 312 312 312 313 315 316 316 317 317 317 318 319 318 318 317 317 318 320 322 325 322 322
317 318 320 321 321 319 321 320 315 317 318 319 318 318 318 320 318 318 316 314 313 312 310 311 310 310 310 312 313 313 316 317 317 317 317 317 316 317 319 320 324 321 321 321
316 318 321 322 320 320 321 320 322 316 323 324 320 322 318 323 320 320 318 317 316 313 310 308 307 309 310 311 311 312 312 313 314 315 315 316 319 321 321 323 321 320 320 321
317 318 320 319 320 321 320 319 319 318 317 320 321 320 318 323 320 318 314 313 312 310 309 309 309 311 311 312 312 312 312 312 312 312 312 313 315 317 318 319 320 320 321 321
317 316 321 320 317 317 318 321 320 320 324 316 313 317 318 317 314 313 312 311 310 309 309 308 308 309 310 310 310 310 310 310 309 309 309 309 309 310 310 311 314 319 322 321
317 318 320 318 318 316 321 321 322 322 324 329 329 327 317 315 313 311 310 309 310 309 308 307 307 306 308 309 309 308 308 308 308 308 308 307 307 307 307 307 307 308 309 314
315 316 318 319 319 317 321 318 320 320 327 327 326 324 322 319 313 311 309 309 309 308 307 307 306 305 307 307 307 307 307 308 308 307 307 307 307 307 306 306 306 306 306 307
312 316 318 318 318 318 318 317 316 319 320 323 320 321 320 315 313 311 309 309 308 307 306 306 305 304 305 305 305 306 306 305 305 305 305 305 305 305 305 305 305 305 305 307
310 316 316 316 316 313 314 313 314 315 315 320 320 319 313 311 310 309 308 308 307 306 306 305 305 304 304 304 304 304 303 303 302 302 302 302 303 303 304 304 304 304 304 305
312 311 311 314 313 313 312 311 311 315 315 315 316 313 311 311 310 309 308 307 306 305 305 305 304 303 303 303 303 302 301 300 299 299 299 300 300 300 301 301 302 303 304 305
312 310 309 312 310 314 310 316 317 317 315 313 313 312 311 310 308 308 306 305 305 305 304 302 302 302 302 301 300 299 298 298 298 298 298 298 299 299 299 301 302 302 302 302
310 309 312 311 312 311 318 320 319 318 316 312 313 311 310 307 305 305 305 304 303 301 301 301 301 300 299 299 298 298 298 297 297 297 297 297 297 298 299 299 300 301 302 304
312 310 308 311 311 313 313 317 317 317 319 313 310 309 308 305 306 304 303 301 300 301 301 300 298 298 298 297 297 296 296 296 296 296 296 296 297 297 297 298 298 299 301 302
317 316 317 314 316 312 312 316 314 318 313 311 308 306 306 305 304 302 300 301 301 300 300 297 297 296 296 296 295 295 295 295 295 295 296 296 296 297 297 297 298 298 301 302
318 317 316 318 316 316 314 314 316 310 310 308 305 305 303 301 300 300 301 300 299 299 296 295 294 295 294 294 294 294 294 295 295 295 296 296 297 297 297 298 298 299 300 302
319 312 315 313 315 313 313 312 312 309 306 305 303 300 301 301 300 299 298 298 297 294 294 293 293 294 293 293 293 294 294 294 295 296 297 297 298 297 297 298 298 300 302 303
315 315 317 314 315 316 314 312 308 304 302 300 300 301 300 299 299 298 296 294 294 293 292 293 293 293 293 292 293 293 293 294 295 296 296 299 298 298 298 299 300 301 302 303
308 314 313 315 314 314 313 308 303 302 301 301 300 300 298 298 297 295 294 294 293 292 293 292 292 292 292 292 292 292 293 294 295 296 297 299 299 299 300 301 301 302 302 303
307 309 309 311 311 310 306 302 301 301 301 300 298 298 296 296 295 294 294 293 292 292 291 291 291 291 291 291 291 292 293 294 296 297 299 300 300 299 300 302 302 303 304 304
Wind_Speed
6 4 5 8 7 6 3 3 5 4 6 1 6 5 15 12 8 9 9 9 9 10 10 6 14 19 24 23 26 28 29 27 27 25 22 17 15 11 8 9 9 11 13 17
4 6 10 6 5 5 5 3 6 6 5 5 4 6 7 4 6 12 11 9 9 6 7 5 19 27 33 34 31 29 27 25 21 17 11 5 5 3 2 4 6 8 10 12
6 4 4 5 4 4 5 4 6 7 3 1 2 5 4 4 3 4 3 4 5 9 10 8 11 25 33 35 31 29 25 21 17 14 12 10 6 2 2 5 8 11 14 16
5 6 4 3 6 7 6 7 11 9 4 3 2 4 4 5 6 3 4 6 9 10 8 8 10 15 29 31 27 25 22 20 17 16 13 9 6 5 6 7 8 11 13 15
6 1 2 2 5 6 9 9 13 7 3 5 2 4 6 2 3 5 8 7 8 11 10 12 15 23 26 26 22 18 17 17 15 12 10 10 12 11 10 11 11 11 11 12
6 2 2 5 4 1 6 4 7 4 4 1 4 5 5 2 2 5 4 7 7 8 2 6 9 16 18 19 17 17 17 14 13 13 15 16 15 14 14 13 10 10 10 13
2 2 2 1 1 7 7 6 2 3 2 5 3 3 7 2 2 6 3 7 4 6 7 8 10 7 9 14 16 18 19 18 17 17 18 17 17 15 15 15 13 13 12 11
5 2 5 0 3 3 2 5 5 7 4 4 4 4 3 2 5 7 6 5 7 6 8 9 9 13 19 20 19 20 21 21 22 24 24 22 19 19 19 18 17 16 14 11
5 2 4 4 2 4 1 3 3 6 3 3 3 5 2 4 8 9 8 8 6 6 7 5 7 5 6 9 14 15 21 27 28 28 24 21 21 22 23 23 20 18 16 15
5 2 2 2 1 3 3 3 2 3 5 4 3 3 4 2 5 3 6 6 6 7 8 8 8 13 13 12 13 12 12 14 12 12 15 19 22 22 23 23 22 20 19 18
3 4 3 1 1 2 4 2 4 4 4 4 3 5 4 5 5 7 8 7 7 8 9 8 7 16 20 20 22 21 22 20 20 20 20 17 16 16 18 21 24 23 23 23
2 4 2 3 5 1 3 2 4 4 4 2 3 5 4 6 6 8 7 6 7 8 6 6 6 11 15 18 20 20 20 21 21 21 22 23 22 22 21 19 19 23 26 27
3 1 2 3 4 6 4 3 5 4 3 4 2 3 5 6 8 7 7 5 4 8 7 7 7 7 13 18 20 22 24 24 25 25 26 30 32 32 32 31 30 28 27 27
5 3 3 5 3 2 1 2 3 6 2 2 8 3 11 6 6 7 7 4 5 4 5 5 5 6 13 17 20 23 25 22 24 28 28 27 30 31 32 33 33 34 36 34
4 3 2 1 2 2 4 5 7 7 6 8 6 8 10 4 3 4 4 4 5 5 6 5 6 7 12 16 18 18 19 23 26 26 26 28 30 31 32 32 33 34 33 34
4 3 2 3 3 3 3 8 7 8 11 11 11 9 3 4 4 4 4 2 5 7 8 9 9 11 13 14 20 23 26 29 30 30 31 32 32 31 32 32 30 31 34 35
3 5 3 3 5 6 6 6 7 2 4 5 8 4 2 1 5 4 3 2 6 8 10 12 10 7 15 21 25 26 28 30 29 29 28 27 29 30 31 31 31 31 29 32
4 4 3 0 4 1 4 5 6 11 5 6 6 4 2 1 5 8 5 3 7 10 11 8 10 18 23 24 25 27 26 26 27 28 28 28 27 29 30 28 23 25 28 32
4 4 3 2 2 6 1 2 2 2 1 3 2 2 2 6 6 4 5 2 8 7 6 14 19 23 26 26 26 27 28 27 25 26 26 26 26 27 27 27 24 22 27 27
5 5 4 3 2 4 4 2 5 2 2 0 1 1 2 3 4 4 5 5 7 12 14 15 24 25 24 26 25 26 26 26 25 26 26 26 26 26 26 25 28 25 25 26
3 2 6 3 3 6 3 6 5 2 3 1 1 1 2 2 5 8 9 9 11 15 19 26 23 23 24 25 26 25 25 23 26 27 28 27 26 26 25 26 27 27 24 24
5 6 3 3 4 6 3 2 0 3 2 2 3 3 4 6 7 8 11 12 15 15 23 24 23 23 25 24 23 23 23 26 27 28 27 26 25 24 24 24 24 26 24 23
3 4 3 4 2 2 1 3 2 2 2 4 3 5 5 6 8 12 15 15 14 20 22 23 23 25 24 22 20 23 26 28 27 27 27 26 24 22 22 22 21 21 20 17
2 3 2 2 5 6 2 3 6 6 5 5 5 4 4 8 14 14 14 15 15 18 20 23 22 21 22 23 23 23 25 25 25 24 25 22 20 22 22 20 20 18 17 15
4 5 5 3 1 4 2 4 6 7 7 6 5 6 8 10 12 12 13 13 14 19 19 20 19 19 22 25 25 25 25 24 23 23 23 18 20 19 19 20 19 19 20 18
3 5 4 4 6 5 3 5 7 7 5 5 5 9 12 10 11 12 12 15 18 17 19 17 19 20 22 23 24 25 25 23 22 20 19 17 17 16 19 16 18 17 17 16
Wind_Direction
185 152 198 206 181 191 237 225 233 238 240 261 249 268 266 266 212 214 223 233 239 231 233 194 181 167 158 155 154 154 152 154 157 159 164 176 176 169 174 204 240 263 279 287
40 211 216 201 176 203 223 248 276 283 266 160 242 239 260 277 228 209 212 227 234 231 238 136 154 159 164 166 168 168 167 166 171 173 164 146 161 169 228 278 294 315 322 319
173 236 168 169 224 207 232 197 253 218 329 210 220 307 326 311 272 180 254 239 253 229 230 166 175 172 169 172 172 168 164 162 163 162 158 150 150 162 273 309 314 314 314 316
228 285 222 214 237 184 256 207 238 254 134 219 110 264 284 299 313 343 266 275 266 254 242 185 181 187 179 175 170 168 168 167 163 158 159 165 186 219 252 271 285 300 304 311
233 220 79 239 207 161 229 217 207 209 180 123 334 87 270 315 293 287 297 277 247 246 237 199 188 182 175 169 170 171 170 163 164 168 178 187 198 218 235 252 268 281 296 307
218 245 221 215 273 209 274 107 53 48 96 206 219 138 287 241 275 293 279 267 278 322 215 155 134 153 165 163 171 173 172 178 190 196 196 199 212 222 232 253 266 275 273 286
282 211 264 238 56 359 50 60 1 323 352 214 281 102 228 281 327 248 285 328 353 82 77 95 93 96 144 161 168 177 191 198 206 217 217 228 233 239 255 266 262 256 253 271
180 220 166 59 122 191 16 135 151 204 200 230 315 227 208 10 34 43 71 59 24 71 115 121 147 171 181 188 194 201 208 214 216 217 224 232 240 249 254 254 249 240 252 270
164 255 78 100 167 132 217 58 175 106 14 72 258 292 4 36 39 41 46 50 31 37 9 358 348 325 287 240 233 241 235 227 226 227 233 240 246 248 248 252 238 244 254 267
197 133 31 111 282 27 124 150 72 16 144 202 285 265 216 69 63 43 22 9 16 29 29 33 33 17 9 352 332 314 302 281 307 310 302 291 284 264 250 238 243 251 259 260
107 111 272 87 87 140 21 46 71 109 133 164 168 255 215 137 20 355 22 13 45 57 50 42 37 44 44 40 37 32 33 30 28 20 13 4 348 329 305 294 279 261 260 261
16 125 151 211 309 285 90 120 119 138 202 163 160 261 69 48 34 84 48 45 48 59 43 36 34 28 22 14 8 2 357 353 349 343 338 336 333 331 330 331 321 298 285 268
165 44 96 24 349 12 102 120 118 103 81 193 211 268 166 80 62 45 54 38 52 54 23 13 13 7 358 351 344 339 335 331 330 329 326 322 318 314 312 308 305 302 304 299
84 90 147 189 149 164 157 91 146 121 188 225 229 256 291 345 60 31 22 71 37 19 17 345 340 325 327 324 321 323 323 326 324 320 317 311 308 305 302 300 296 293 292 290
81 113 81 6 289 276 206 212 219 212 184 200 202 211 248 172 110 58 341 22 7 349 341 327 317 308 310 312 321 324 319 315 313 307 302 297 295 292 290 286 284 283 283 277
359 135 82 316 325 39 276 271 254 232 231 227 229 245 135 117 64 6 340 7 342 321 309 309 311 314 316 325 318 312 308 305 305 300 297 295 293 290 287 284 280 282 280 274
93 125 100 259 351 325 287 242 230 134 39 232 221 182 92 38 322 305 261 317 300 304 314 314 313 311 309 307 307 306 307 307 303 299 296 295 295 292 289 285 283 281 278 281
120 103 97 275 349 270 238 336 108 105 64 61 72 78 91 300 276 275 196 211 307 317 308 311 309 305 306 307 307 304 302 302 299 297 296 294 292 289 289 283 284 286 284 281
130 112 105 147 238 292 161 30 57 72 76 40 77 26 341 332 325 301 186 326 299 286 285 288 302 308 310 307 307 306 305 305 301 299 296 295 297 295 292 291 287 290 284 284
107 106 109 147 172 239 240 312 351 313 225 292 117 0 302 328 344 243 291 302 285 281 286 311 313 308 307 308 310 307 302 303 298 297 297 296 293 293 290 286 286 281 278 277
139 131 205 161 211 287 267 314 326 135 230 327 134 253 287 255 219 283 316 308 302 305 320 321 314 311 309 311 308 301 298 296 300 300 299 296 293 290 289 287 282 278 277 273
168 175 176 169 184 255 346 333 248 219 307 72 20 352 303 293 299 301 313 315 322 324 327 319 314 312 311 308 304 298 299 304 306 302 297 293 290 287 287 284 283 279 271 276
185 185 158 168 223 204 14 152 319 355 77 30 28 2 359 328 319 318 319 323 325 321 317 318 313 308 309 309 307 303 306 309 305 302 297 293 292 292 286 281 278 281 277 263
358 125 189 143 214 218 348 308 62 64 75 45 49 5 354 328 325 321 322 320 318 319 317 312 312 310 311 316 315 309 309 310 308 307 302 299 301 294 290 285 275 276 279 269
211 154 192 218 177 161 196 52 102 72 60 47 23 1 347 330 325 320 316 317 316 313 312 316 311 311 314 320 319 319 317 314 308 305 303 294 296 294 299 296 279 273 266 254
199 191 155 216 182 133 87 94 88 82 64 42 11 357 349 334 324 323 321 317 312 314 319 318 318 319 319 321 319 318 320 319 311 304 307 309 302 314 309 299 303 312 271 272